• Processing (Info)

  • MPEC 1994-A08 : 1993 UC

    The following Minor Planet Electronic Circular may be linked-to from your own Web pages, but must not otherwise be redistributed electronically.

    A form allowing access to any MPEC is at the bottom of this page.


    Read MPEC 1994-A07 Read MPEC 1994-B01


    M.P.E.C. 1994-A08                                Issued 1994 Jan. 14, 16:58 UT
    
         The Minor Planet Electronic Circulars contain information on unusual
             minor planets and routine data on comets.  They are published
       on behalf of Commission 20 of the International Astronomical Union by the
              Minor Planet Center, Smithsonian Astrophysical Observatory,
                              Cambridge, MA 02138, U.S.A.
    
              MARSDEN@CFA or WILLIAMS@CFA (.HARVARD.EDU, .SPAN or .BITNET)
    
                                        1993 UC
    
    Additional observations:
         J93U00C   1993 12 16.54132 00 12 45.06 -35 21 49.0                      413
         J93U00C   1993 12 17.46076 00 13 21.36 -35 20 06.2                      413
    
    Observer details:
    413 Siding Spring Observatory.  Observers R. H. McNaught, G. J. Garradd.
        Measurer R. H. McNaught.  Uppsala Southern Schmidt.
    
    Orbital elements:
    1993 UC
    Epoch 1994 Feb. 17.0 TT = JDT 2449400.5                 Williams
    M 359.55742              (2000.0)            P               Q
    n   0.25811612     Peri.  322.92673     -0.64366305     -0.75803225
    a   2.4430141      Node   166.05449     +0.76403154     -0.64442424
    e   0.6629570      Incl.   25.90436     +0.04420059     +0.10052121
    P   3.82           H   15.0           G   0.15
    From 27 observations 1993 Oct. 20-Dec. 17, mean residual 0".78.
    
    Ephemeris:
    1993 UC                  a,e,i = 2.44, 0.66, 26                  q = 0.8234
    Date    TT    R. A. (2000) Decl.     Delta      r     Elong.  Phase     V
    1994 01 18    00 53.80   -32 27.9    0.728    0.953    65.7    70.2    16.7
    1994 01 28    01 12.24   -30 44.8    0.642    0.888    62.0    78.3    16.5
    1994 02 07    01 31.40   -28 18.7    0.539    0.843    58.7    88.2    16.4
    1994 02 12    01 40.80   -26 38.0    0.482    0.830    57.0    93.8    16.4
    1994 02 22    01 58.27   -21 29.2    0.363    0.825    53.3   106.1    16.3
    1994 02 27    02 06.05   -17 16.8    0.303    0.833    50.9   112.7    16.3
    
    1994 03 04    02 13.18   -10 58.6    0.245    0.848    48.3   119.2    16.4
    1994 03 09    02 19.94   -00 59.4    0.193    0.870    45.9   125.0    16.4
    1994 03 14    02 27.10   +15 22.7    0.150    0.897    46.2   126.9    16.1
    1994 03 19    02 36.94   +40 10.8    0.128    0.929    55.2   118.3    15.1
    1994 03 24    02 59.60   +67 36.3    0.134    0.965    72.3   100.1    14.2
    1994 03 29    06 56      +86 20.3    0.165    1.004    87.2    83.3    14.0
    1994 04 03    13 23.1    +77 46.3    0.209    1.046    96.9    71.6    14.2
    1994 04 08    13 49.13   +69 25.6    0.259    1.090   103.2    63.4    14.5
    1994 04 13    13 56.86   +63 29.0    0.312    1.136   107.3    57.4    14.8
    1994 04 18    14 00.22   +58 55.9    0.367    1.182   110.3    52.8    15.1
    1994 04 23    14 02.01   +55 12.4    0.423    1.230   112.4    49.1    15.4
    1994 04 28    14 03.18   +51 59.6    0.480    1.278   113.9    46.1    15.7
    1994 05 03    14 04.15   +49 06.5    0.538    1.327   114.8    43.6    15.9
    1994 05 08    14 05.17   +46 26.4    0.597    1.376   115.4    41.5    16.2
    
    1994 05 18    14 07.93   +41 30.8    0.720    1.473   115.5    38.3    16.7
    1994 05 28    14 12.03   +36 57.8    0.850    1.569   114.4    36.0    17.1
    1994 06 07    14 17.50   +32 42.1    0.987    1.664   112.4    34.3    17.5
    1994 06 17    14 24.32   +28 41.5    1.132    1.757   109.6    33.0    17.9
    1994 06 27    14 32.34   +24 56.1    1.285    1.848   106.2    31.9    18.2
    1994 07 07    14 41.40   +21 25.8    1.445    1.936   102.3    30.9    18.6
    1994 07 17    14 51.38   +18 10.2    1.611    2.023    98.1    29.8    18.9
    1994 07 27    15 02.15   +15 09.3    1.783    2.107    93.6    28.8    19.1
    1994 08 06    15 13.59   +12 22.7    1.960    2.188    88.8    27.6    19.4
    1994 08 16    15 25.63   +09 50.0    2.139    2.267    83.9    26.4    19.6
    1994 08 26    15 38.17   +07 30.8    2.320    2.344    78.8    25.0    19.8
    
    Gareth V. Williams                                            M.P.E.C. 1994-A08
    

    Read MPEC 1994-A07 Read MPEC 1994-B01


    MPEC number:

    Enter an MPEC number in one of the following forms:

    • 1997-B01 (the full form)
    • J97B01 (the packed version of the full form)
    • B01 (the abbreviated form)